Location: The Dilly Hill Observatory
(31.5262°N, 86.8310°W)
Time: 21:35:14
(UTC-06:00)

ISS - Pass Details

Date: 21 January 2018
Orbit: 402 x 407 km, 51.6° (Epoch: 25 February)

Event Time Altitude Azimuth Distance (km) Brightness Sun altitude
Rises 19:00:26 0° 212° (SSW) 2,298 0.6 -22.9°
Reaches altitude 10° 19:02:32 10° 206° (SSW) 1,443 -0.6 -23.4°
Enters shadow 19:03:44 20° 198° (SSW) 989 -1.6 -23.6°
